Regional Weather Roundup
Issued by NWS

Home | Current Version | Previous Version | Graphics & Text | Print | Product List | Glossary Off
Versions: 1 2 3 4 5 6 7 8 9 10 11 12 13 14 15 16 17 18 19 20 21 22 23 24 25 26 27 28 29 30 31 32 33 34 35 36 37 38 39 40 41 42 43 44 45 46 47 48 49 50

206
ASUS43 KLSX 031310
RWRMO

WEATHER SUMMARY FOR MISSOURI
NATIONAL WEATHER SERVICE SPRINGFIELD MO
700 AM CST SAT DEC 03 2016

NOTE: "FAIR" INDICATES FEW OR NO CLOUDS BELOW 12,000 FEET WITH NO
       SIGNIFICANT WEATHER AND/OR OBSTRUCTIONS TO VISIBILITY.
       CURRENT SKY AND/OR WEATHER CONDITIONS ARE NOT AVAILABLE FOR
       CHILLICOTHE AND FARMINGTON.

MOZ001>031-035>038-043-044-053-054-031400-
...NORTHERN AND WESTERN MISSOURI...

CITY           SKY/WX    TMP DP  RH WIND       PRES   REMARKS
KANSAS CTY INT CLOUDY    31  26  82 E7        30.28F WCI  24
KANSAS C DTWN  CLOUDY    33  29  85 NE5       30.30S WCI  29
LEE`S SUMMIT   CLOUDY    34  28  79 E8        30.28F WCI  27
ST JOSEPH      PTCLDY    23  20  88 CALM      30.31S
CHILLICOTHE      N/A     25  24  96 CALM      30.33F
KIRKSVILLE     CLOUDY    26  25  96 NE6       30.32F WCI  19

$$
MOZ066>068-077>081-088>096-101>105-031400-
...SOUTHWEST MISSOURI...

CITY           SKY/WX    TMP DP  RH WIND       PRES   REMARKS
SPRINGFIELD    PTCLDY    43  29  57 SE8       30.23F
JOPLIN         CLOUDY    45  30  55 SE6       30.24R
BRANSON        CLOUDY    41  32  70 SE8       30.25F

$$
MOZ032>034-039>042-045>050-055>058-069>072-031400-
...CENTRAL MISSOURI...

CITY           SKY/WX    TMP DP  RH WIND       PRES   REMARKS
COLUMBIA       CLOUDY    31  27  85 E8        30.30F WCI  23
JEFFERSON CITY PTCLDY    27  25  92 CALM      30.33F
ROLLA          PTCLDY    31  27  85 E7        30.29F WCI  24
SEDALIA        PTCLDY    32  26  78 E5        30.30F WCI  27
WHITEMAN AFB   MOCLDY    30  30  99 CALM      30.28F
WARRENSBURG    CLOUDY    30  28  93 NE3       30.29S
OSAGE BEACH    PTCLDY    30  26  85 NE6       30.30F WCI  24

$$
MOZ051-052-059>065-031400-
...EAST CENTRAL MISSOURI...

CITY           SKY/WX    TMP DP  RH WIND       PRES   REMARKS
ST LOUIS INTL  CLOUDY    31  27  85 E3        30.36S
SPIRIT OF STL  MOCLDY    27  26  96 CALM      30.36S
ST CHARLES     PTCLDY    28  28 100 CALM      30.36S

$$
MOZ072>076-082>087-097>100-106>115-031400-
...SOUTH CENTRAL AND SOUTHEAST MISSOURI...

CITY           SKY/WX    TMP DP  RH WIND       PRES   REMARKS
CAPE GIRARDEAU CLOUDY    36  32  85 NE5       30.36F
FARMINGTON     PTCLDY    28  26  92 CALM      30.34F
POPLAR BLUFF   CLOUDY    38  34  85 NE5       30.34F
WEST PLAINS    PTCLDY    38  31  76 E6        30.29F

$$




USA.gov is the U.S. government's official web portal to all federal, state and local government web resources and services.